Location: Bavegemberg
(50.9500°N, 3.8833°E)
Time: 12:13:43
(UTC+00:00)

Cosmos 1833 Rocket - Pass Details

Date: 23 May 2024
Orbit: 832 x 839 km, 71.0° (Epoch: 14 June)

Event Time Altitude Azimuth Distance (km) Brightness Sun altitude
Exits shadow 00:08:18 24° 224° (SW) 1,662 3.8 -18.2°
Maximum altitude 00:11:43 68° 303° (WNW) 897 2.9 -18.1°
Drops below altitude 10° 00:17:20 10° 26° (NNE) 2,455 6.2 -18.0°
Sets 00:19:49 0° 30° (NNE) 3,394 7.2 -17.9°
